サイディング・スプリング彗星

C/2007 Q3 ( Siding Spring )

English version
Home page
Updated on December 15, 2011

---------------------------------------------------------------------

・ プロフィール

発見日 2007年8月25日
発見光度 17.8等
発見者 D. M. Burton (Siding Spring survey)

・ 写真集

・ 軌道要素

Epoch 2009 Oct. 16.0 TT = JDT 2455120.5
T 2009 Oct. 7.26491 TT                                  MPC
q   2.2516893            (2000.0)            P               Q
z  -0.0001156      Peri.    2.09036     -0.86793557     -0.17825933
 +/-0.0000001      Node   149.41282     +0.44145240     -0.70460899
e   1.0002602      Incl.   65.65050     +0.22761287     +0.68684043
From 3233 observations 2007 Aug. 25-2011 Sept. 3, mean residual 0".6.

・ 星図

・ 光度変化

        m1 = 3.0 + 5 logΔ + 11.5 log r  [   ,  0]  (              〜2009年10月 7日)
        m1 = 0.0 + 5 logΔ + 20.0 log r  [  0,370]  (2009年10月 7日〜2010年10月12日)
        m1 = 6.5 + 5 logΔ + 10.0 log r  [370,   ]  (2010年10月12日〜              )

---------------------------------------------------------------------

軌道要素はM.P.E.C. 2011-T39に掲載されたものです。
星図はステラナビゲータ Ver.8 (アストロアーツ) で作成したものです。
光度グラフはComet for Windowsで作成したものです。

---------------------------------------------------------------------

Copyright(C) Seiichi Yoshida (comet@aerith.net). All rights reserved.